Total_Precipitation_Accumulation
0.65 0.63 0.60 0.62 0.67 0.74 0.81 0.94 1.09 1.30 1.38 1.42 1.53 1.73 1.89 2.02 2.11 2.16 2.00 1.87 1.83 1.96 2.10 2.01 2.08 2.08 1.95 1.93 1.99 2.03 2.00 1.81 1.66 1.71 1.60 1.35 1.17 1.25 1.22 1.24 1.30 1.31 1.39
0.50 0.45 0.41 0.44 0.48 0.49 0.55 0.67 0.84 0.96 1.11 1.30 1.57 1.79 2.04 2.07 2.14 2.20 2.20 2.11 2.04 2.16 2.19 2.26 2.36 2.37 2.38 2.31 2.19 2.30 2.46 2.19 1.95 2.07 2.36 1.97 1.63 1.27 1.05 1.16 1.26 1.33 1.57
0.33 0.28 0.28 0.35 0.41 0.40 0.44 0.54 0.69 0.85 1.09 1.34 1.71 2.00 2.28 2.38 2.44 2.39 2.40 2.39 2.37 2.39 2.40 2.46 2.51 2.51 2.37 2.37 2.48 2.61 2.95 2.76 2.38 2.17 2.48 2.33 2.02 1.72 1.27 1.15 1.25 1.35 1.50
0.32 0.30 0.28 0.29 0.32 0.37 0.45 0.58 0.79 1.03 1.32 1.65 2.01 2.28 2.58 2.74 2.58 2.57 2.57 2.51 2.40 2.37 2.45 2.44 2.42 2.38 2.33 2.39 2.47 2.52 2.95 3.18 2.89 2.52 2.10 1.89 1.87 2.00 1.73 1.30 1.25 1.35 1.38
0.39 0.37 0.38 0.38 0.42 0.49 0.59 0.79 1.06 1.37 1.69 1.96 2.14 2.40 2.54 2.55 2.50 2.44 2.44 2.35 2.31 2.27 2.28 2.25 2.34 2.33 2.36 2.42 2.60 2.72 3.00 3.05 3.07 2.87 2.62 2.38 2.07 1.76 1.86 1.82 1.54 1.48 1.37
0.42 0.42 0.46 0.54 0.62 0.70 0.87 1.07 1.24 1.55 1.75 1.92 2.06 2.23 2.37 2.39 2.37 2.35 2.39 2.37 2.33 2.22 2.15 2.11 2.17 2.28 2.40 2.44 2.54 2.71 2.97 3.11 3.21 3.10 2.80 2.70 2.55 2.28 2.17 1.94 1.80 1.76 1.51
0.48 0.49 0.62 0.78 0.85 0.90 1.03 1.21 1.30 1.50 1.62 1.70 1.83 1.98 2.00 2.03 2.04 2.04 2.06 1.97 1.91 1.89 1.96 2.04 2.12 2.25 2.33 2.39 2.50 2.63 2.70 2.84 3.10 3.12 2.93 2.71 2.53 2.52 2.40 2.30 2.00 1.80 1.56
0.66 0.76 0.91 1.00 1.08 1.12 1.11 1.17 1.33 1.37 1.39 1.47 1.48 1.56 1.63 1.68 1.73 1.71 1.72 1.77 1.80 1.81 1.75 1.79 1.86 2.08 2.27 2.35 2.44 2.45 2.44 2.51 2.71 2.72 2.78 2.74 2.50 2.45 2.38 2.39 2.53 2.23 1.95
0.91 1.17 1.36 1.46 1.53 1.47 1.31 1.19 1.22 1.24 1.22 1.32 1.37 1.41 1.47 1.50 1.52 1.54 1.46 1.57 1.59 1.59 1.54 1.58 1.61 1.73 1.93 2.18 2.33 2.31 2.24 2.21 2.37 2.43 2.52 2.66 2.70 2.60 2.51 2.51 2.65 2.65 2.37
1.35 1.66 1.93 2.10 2.07 1.86 1.61 1.37 1.21 1.14 1.12 1.18 1.27 1.37 1.40 1.40 1.37 1.39 1.31 1.34 1.42 1.42 1.35 1.37 1.48 1.64 1.74 1.91 2.11 2.19 2.15 2.17 2.25 2.37 2.48 2.63 2.77 2.79 2.58 2.55 2.58 2.50 2.48
1.81 2.01 2.19 2.31 2.11 1.92 1.65 1.38 1.21 1.20 1.22 1.27 1.32 1.34 1.30 1.28 1.26 1.21 1.16 1.20 1.27 1.26 1.25 1.39 1.48 1.55 1.65 1.82 2.05 2.20 2.22 2.16 2.17 2.17 2.25 2.45 2.57 2.80 2.74 2.64 2.58 2.49 2.40
1.57 1.68 1.79 1.80 1.85 1.81 1.62 1.42 1.29 1.28 1.33 1.39 1.43 1.37 1.31 1.26 1.23 1.19 1.10 1.09 1.05 1.03 1.13 1.27 1.30 1.34 1.37 1.57 1.86 2.06 2.11 2.11 2.01 1.96 2.07 2.31 2.50 2.71 2.82 2.77 2.65 2.59 2.47
1.35 1.35 1.40 1.51 1.61 1.63 1.53 1.51 1.46 1.47 1.50 1.47 1.37 1.30 1.23 1.15 1.11 1.02 0.98 1.01 1.00 1.07 1.17 1.22 1.26 1.29 1.34 1.37 1.51 1.70 1.84 1.85 1.80 1.81 1.83 1.85 2.05 2.35 2.56 2.60 2.66 2.68 2.64
1.06 1.07 1.17 1.28 1.37 1.40 1.42 1.40 1.38 1.42 1.54 1.62 1.52 1.40 1.28 1.18 1.14 1.05 0.96 0.94 0.97 1.06 1.14 1.17 1.23 1.31 1.35 1.36 1.39 1.42 1.48 1.54 1.62 1.67 1.67 1.71 1.76 2.00 2.21 2.30 2.46 2.70 2.74
0.77 0.80 0.86 0.88 0.87 0.87 0.95 1.02 1.11 1.25 1.42 1.58 1.59 1.48 1.31 1.17 1.10 1.05 0.97 0.94 0.95 0.97 1.05 1.11 1.11 1.16 1.25 1.36 1.42 1.31 1.27 1.36 1.46 1.45 1.39 1.42 1.60 1.82 1.96 1.93 2.20 2.54 2.75
0.54 0.53 0.53 0.52 0.51 0.49 0.50 0.54 0.66 0.85 1.10 1.38 1.41 1.26 1.11 0.97 0.89 0.90 0.92 0.93 0.91 0.96 0.99 0.94 0.96 1.04 1.07 1.34 1.38 1.22 1.15 1.20 1.30 1.39 1.37 1.25 1.28 1.40 1.53 1.58 1.72 1.97 2.21
0.40 0.41 0.40 0.38 0.37 0.37 0.37 0.41 0.50 0.64 0.83 0.97 0.99 0.94 0.88 0.87 0.90 0.92 0.88 0.89 0.91 0.93 0.95 0.92 0.90 0.93 1.06 1.20 1.10 1.15 1.08 1.12 1.18 1.27 1.36 1.28 1.17 1.33 1.36 1.49 1.58 1.54 1.61
0.30 0.29 0.30 0.32 0.36 0.37 0.40 0.45 0.52 0.58 0.63 0.67 0.71 0.71 0.72 0.76 0.83 0.86 0.84 0.90 0.94 0.90 0.91 0.96 0.97 0.95 1.03 1.09 1.00 1.10 1.05 1.03 1.08 1.21 1.31 1.36 1.30 1.35 1.49 1.45 1.46 1.39 1.38
0.22 0.20 0.20 0.21 0.25 0.27 0.28 0.29 0.32 0.34 0.36 0.38 0.40 0.46 0.51 0.54 0.58 0.60 0.69 0.82 0.90 0.92 0.95 1.00 1.00 0.93 0.94 1.05 1.01 1.06 1.03 1.02 1.04 1.07 1.15 1.25 1.20 1.46 1.61 1.49 1.60 1.59 1.48
0.22 0.21 0.18 0.18 0.21 0.23 0.25 0.24 0.24 0.25 0.26 0.26 0.28 0.32 0.36 0.39 0.43 0.49 0.56 0.64 0.69 0.76 0.89 0.92 0.93 0.94 0.92 1.17 1.13 1.12 1.02 1.04 1.11 1.13 1.10 1.29 1.32 1.50 1.51 1.35 1.55 1.61 1.57
0.20 0.22 0.21 0.20 0.20 0.24 0.26 0.26 0.26 0.28 0.31 0.32 0.33 0.34 0.35 0.37 0.42 0.47 0.51 0.56 0.61 0.71 0.77 0.81 0.85 0.93 1.04 1.25 1.29 1.31 1.16 1.15 1.25 1.22 1.11 1.06 1.28 1.20 1.30 1.31 1.28 1.55 1.62
0.18 0.20 0.21 0.23 0.24 0.24 0.25 0.26 0.26 0.29 0.33 0.35 0.36 0.37 0.38 0.40 0.43 0.48 0.53 0.58 0.63 0.66 0.70 0.73 0.77 0.82 0.91 1.03 1.14 1.18 1.19 1.21 1.21 1.23 1.12 1.12 1.29 1.13 1.12 1.09 1.19 1.45 1.57
0.17 0.17 0.20 0.20 0.20 0.22 0.22 0.24 0.28 0.31 0.33 0.34 0.35 0.38 0.40 0.41 0.41 0.47 0.54 0.58 0.61 0.63 0.67 0.70 0.76 0.80 0.84 0.91 0.98 0.98 1.04 1.12 1.11 1.10 1.19 1.23 1.22 1.11 1.00 1.00 1.11 1.20 1.28
0.17 0.16 0.19 0.21 0.22 0.23 0.24 0.28 0.29 0.28 0.29 0.35 0.37 0.38 0.39 0.41 0.44 0.47 0.53 0.57 0.61 0.64 0.67 0.72 0.76 0.79 0.81 0.84 0.86 0.95 1.02 1.00 0.99 1.01 1.02 1.05 1.07 1.05 0.96 0.97 1.04 1.11 1.23
0.20 0.22 0.24 0.25 0.26 0.27 0.29 0.33 0.35 0.32 0.30 0.32 0.35 0.36 0.37 0.42 0.44 0.47 0.50 0.52 0.58 0.69 0.77 0.79 0.81 0.77 0.74 0.76 0.84 0.93 1.03 1.12 1.19 1.25 1.15 1.12 1.12 1.09 1.02 1.00 1.01 1.09 1.19
0.26 0.28 0.29 0.29 0.29 0.29 0.31 0.34 0.38 0.39 0.38 0.38 0.36 0.35 0.37 0.41 0.44 0.46 0.47 0.51 0.54 0.65 0.71 0.71 0.71 0.70 0.71 0.76 0.77 0.81 0.92 1.06 1.23 1.35 1.30 1.34 1.35 1.31 1.25 1.19 1.13 1.09 1.11